[[{"header":{"parameterUnit":"m.s-1","parameterCategory":1,"la1":30.2991,"la2":30.254,"lo1":-89.0895,"lo2":-89.0444,"dy":0.0017,"dx":0.0017,"nx":28,"ny":28,"refTime":"2023-08-19T21:00:00:Z","depth":0,"parameterNumber":2,"parameterNumberName":"U-component_of_WINDS"},"data":[0,0,0,0,0,0,0,0,0,0,0,0,0,0,0,0,0,0,0,0,0,0,0,0,0,0,0,0,0,0,0,0,0,0,0,0,0,0,0,0,0,0,0,0,0,0,0,0,0,0,0,0,0,0,0,0,0,0,-0.5981,-0.5982,0,-0.603,-0.603,-0.6031,-0.6068,-0.6068,-0.6068,-0.6069,-0.6117,-0.6117,-0.6118,0,0,0,0,0,0,0,0,0,0,0,0,0,-0.592,-0.5921,-0.5981,-0.5982,-0.5982,-0.6029,-0.603,-0.6031,-0.6068,-0.6068,-0.6068,-0.6069,-0.6116,-0.6117,-0.6118,0,0,0,0,0,0,0,0,0,0,0,0,0,-0.5955,-0.5922,-0.5981,-0.6006,-0.6009,-0.6029,-0.603,-0.6031,-0.6067,-0.6068,-0.6069,-0.6069,-0.6116,-0.6117,-0.6119,-0.6117,0,0,-0.6123,-0.6124,0,0,0,0,0,0,0,0,-0.5953,-0.5958,-0.6002,-0.6005,-0.6008,-0.6043,-0.6026,-0.606,-0.6067,-0.6045,-0.6069,-0.6069,-0.6092,-0.6095,-0.6103,-0.6119,-0.6121,-0.6123,-0.6124,-0.6125,-0.6125,0,0,0,0,0,0,0,-0.5951,-0.5956,-0.6,-0.6003,-0.6006,-0.6015,-0.6021,-0.6033,-0.6065,-0.6047,-0.605,-0.6055,-0.6093,-0.6101,-0.6104,-0.6122,-0.6123,-0.6124,-0.6125,-0.6126,-0.6142,-0.6142,0,0,0,0,0,0,-0.5945,-0.5953,-0.5999,-0.6002,-0.5981,-0.6016,-0.6022,-0.6031,-0.6065,-0.607,-0.6055,-0.6057,-0.6099,-0.6103,-0.6106,-0.6108,-0.6125,-0.6126,-0.6127,-0.6142,-0.6142,-0.6141,0,0,0,0,0,0,-0.5943,-0.5948,-0.5997,-0.5978,-0.5985,-0.6017,-0.6026,-0.6032,-0.604,-0.6071,-0.6076,-0.6057,-0.6099,-0.6104,-0.6115,-0.611,-0.6127,-0.6128,-0.6143,-0.6142,-0.6142,-0.611,0,0,0,0,0,0,-0.5941,-0.5948,-0.5947,-0.5978,-0.5986,-0.6004,-0.6026,-0.6032,-0.6043,-0.6046,-0.6075,-0.608,-0.61,-0.6112,-0.6116,-0.6112,-0.6129,-0.6143,-0.6143,-0.6142,-0.6112,-0.6109,-0.6106,0,0,0,0,0,-0.5939,-0.5935,-0.5947,-0.5952,-0.5986,-0.6004,-0.6008,-0.6032,-0.6042,-0.6042,-0.6062,-0.6079,-0.611,-0.6113,-0.6118,-0.6114,-0.6144,-0.6143,-0.6142,-0.6113,-0.6109,-0.6106,0,0,0,0,0,0,-0.5902,-0.594,-0.5953,-0.5959,-0.5978,-0.601,-0.6011,-0.6027,-0.6043,-0.6045,-0.6074,-0.608,-0.6088,-0.6102,-0.6105,-0.6116,-0.6129,-0.6129,-0.6106,-0.6102,-0.6099,-0.6096,-0.613,0,0,0,0,0,-0.5894,-0.5906,-0.5938,-0.5941,-0.595,-0.5979,-0.5987,-0.6004,-0.6025,-0.6033,-0.6053,-0.6072,-0.6087,-0.6095,-0.611,-0.6114,-0.6122,-0.6114,-0.6111,-0.6109,-0.6108,-0.6113,-0.6111,-0.6138,-0.6138,-0.6138,0,0,-0.5879,-0.5901,-0.5906,-0.5934,-0.5951,-0.5962,-0.5985,-0.5995,-0.6005,-0.6034,-0.6046,-0.6062,-0.6085,-0.6093,-0.6098,-0.6105,-0.6103,-0.6108,-0.6105,-0.6106,-0.6112,-0.6109,-0.6107,-0.6138,-0.6138,-0.6138,0,0,-0.5857,-0.5875,-0.588,-0.5896,-0.5922,-0.5942,-0.5943,-0.5973,-0.5985,-0.5997,-0.6021,-0.6032,-0.6055,-0.6071,-0.6083,-0.607,-0.6086,-0.6074,-0.6058,-0.6062,-0.606,-0.6058,-0.6055,-0.6053,-0.6073,-0.6073,-0.6073,0,-0.5834,-0.5853,-0.588,-0.589,-0.5902,-0.5931,-0.5936,-0.5951,-0.598,-0.5988,-0.5996,-0.6028,-0.6045,-0.6058,-0.6055,-0.6063,-0.6066,-0.607,-0.6058,-0.6057,-0.6056,-0.6052,-0.6051,-0.6071,-0.6072,-0.6072,-0.6072,0,-0.5824,-0.5837,-0.5838,-0.5866,-0.5879,-0.5886,-0.5915,-0.5924,-0.5941,-0.5959,-0.5973,-0.5995,-0.6016,-0.602,-0.6036,-0.6036,-0.604,-0.6053,-0.6067,-0.6051,-0.6048,-0.6047,-0.6069,-0.607,-0.607,-0.607,0,0,-0.5778,-0.5824,-0.5824,-0.5838,-0.5869,-0.5879,-0.5889,-0.591,-0.5918,-0.5937,-0.5947,-0.5967,-0.598,-0.5993,-0.6011,-0.6015,-0.6005,-0.6028,-0.6029,-0.6023,-0.6008,-0.5998,-0.5996,-0.6016,-0.6016,-0.6016,-0.6006,0,-0.5762,-0.5781,-0.5807,-0.5817,-0.583,-0.5859,-0.5868,-0.5888,-0.5906,-0.592,-0.594,-0.5955,-0.597,-0.5979,-0.5984,-0.6005,-0.6002,-0.6006,-0.6025,-0.6026,-0.6019,-0.5994,-0.5984,-0.5973,-0.6005,-0.6005,-0.6005,0,-0.5744,-0.5764,-0.5776,-0.5808,-0.5815,-0.5822,-0.5845,-0.5857,-0.5881,-0.5895,-0.591,-0.593,-0.5943,-0.5956,-0.5974,-0.5976,-0.5986,-0.5998,-0.5998,-0.6,-0.6014,-0.5997,-0.597,-0.5968,-0.6003,-0.6003,-0.6004,0,-0.5711,-0.574,-0.5751,-0.5762,-0.58,-0.5805,-0.5821,-0.5846,-0.5858,-0.5878,-0.5886,-0.5906,-0.5917,-0.5933,-0.5959,-0.5966,-0.5974,-0.5989,-0.5986,-0.5985,-0.5986,-0.5985,-0.596,-0.5992,-0.5992,-0.5992,-0.5992,0,-0.5689,-0.5696,-0.5737,-0.5744,-0.5753,-0.5783,-0.5791,-0.5809,-0.5832,-0.5843,-0.5869,-0.5879,-0.5913,-0.5927,-0.5947,-0.5959,-0.5964,-0.5975,-0.5981,-0.5973,-0.5972,-0.5979,-0.5981,-0.5991,-0.5991,-0.5992,-0.5992,0,-0.5653,-0.568,-0.5695,-0.5731,-0.574,-0.5745,-0.5775,-0.5784,-0.5804,-0.5819,-0.5824,-0.5856,-0.5875,-0.5902,-0.5928,-0.5942,-0.5951,-0.596,-0.5943,-0.5946,-0.5942,-0.5942,-0.5921,-0.592,-0.5951,-0.5951,-0.5951,0,-0.5637,-0.5643,-0.568,-0.569,-0.5705,-0.5721,-0.5734,-0.5764,-0.5776,-0.5806,-0.5811,-0.5832,-0.585,-0.5878,-0.5904,-0.5925,-0.5934,-0.5925,-0.5937,-0.593,-0.5935,-0.5934,-0.5935,-0.5922,-0.5922,-0.5921,-0.5921,0,-0.5607,-0.5621,-0.5639,-0.5662,-0.5677,-0.5696,-0.5717,-0.5723,-0.5758,-0.5771,-0.5791,-0.5805,-0.5833,-0.5854,-0.5878,-0.5895,-0.5914,-0.5917,-0.5918,-0.591,-0.59,-0.5906,-0.5936,-0.5917,-0.5918,-0.5918,-0.5918,-0.5918,-0.5581,-0.5588,-0.5616,-0.5635,-0.5654,-0.5674,-0.5684,-0.5707,-0.5724,-0.575,-0.5767,-0.5786,-0.5812,-0.5847,-0.5863,-0.5879,-0.5887,-0.5887,-0.5887,-0.5887,-0.5884,-0.5898,-0.5883,-0.5883,-0.5884,-0.5884,-0.5884,0,-0.5553,-0.5572,-0.559,-0.5619,-0.5634,-0.5652,-0.5677,-0.5688,-0.5705,-0.5728,-0.5746,-0.577,-0.5791,-0.5819,-0.5842,-0.5849,-0.5858,-0.5854,-0.5854,-0.5857,-0.5876,-0.5873,-0.5846,-0.5846,-0.5846,-0.5846,-0.5846,-0.5846,-0.554,-0.5554,-0.5571,-0.5595,-0.5615,-0.5635,-0.5648,-0.5666,-0.5685,-0.571,-0.5728,-0.5747,-0.5772,-0.5797,-0.5817,-0.5825,-0.5833,-0.5826,-0.5836,-0.5852,-0.5856,-0.5859,-0.5857,-0.5827,-0.5827,-0.5817,-0.5816,-0.5816]},{"header":{"parameterUnit":"m.s-1","parameterCategory":1,"la1":30.2991,"la2":30.254,"lo1":-89.0895,"lo2":-89.0444,"dy":0.0017,"dx":0.0017,"nx":28,"ny":28,"refTime":"2023-08-19T21:00:00:Z","depth":0,"parameterNumber":3,"parameterNumberName":"V-component_of_WINDS"},"data":[0,0,0,0,0,0,0,0,0,0,0,0,0,0,0,0,0,0,0,0,0,0,0,0,0,0,0,0,0,0,0,0,0,0,0,0,0,0,0,0,0,0,0,0,0,0,0,0,0,0,0,0,0,0,0,0,0,0,3.9871,3.987,0,3.9814,3.9814,3.9813,3.9708,3.9706,3.9704,3.9702,3.9646,3.9647,3.9647,0,0,0,0,0,0,0,0,0,0,0,0,0,3.989,3.989,3.9871,3.987,3.9869,3.9815,3.9814,3.9813,3.9708,3.9706,3.9703,3.9701,3.9646,3.9647,3.9647,0,0,0,0,0,0,0,0,0,0,0,0,0,3.9863,3.989,3.9871,3.9811,3.9805,3.9815,3.9814,3.9813,3.9709,3.9706,3.9703,3.97,3.9646,3.9647,3.9647,3.9712,0,0,3.9649,3.9649,0,0,0,0,0,0,0,0,3.9864,3.9862,3.982,3.9815,3.9808,3.9765,3.98,3.9779,3.9709,3.9745,3.9702,3.9698,3.9688,3.9685,3.9682,3.971,3.9707,3.9649,3.965,3.965,3.965,0,0,0,0,0,0,0,3.9866,3.9864,3.9849,3.982,3.9812,3.9787,3.978,3.9796,3.9735,3.9742,3.9734,3.9729,3.9685,3.9681,3.9679,3.9707,3.9649,3.965,3.965,3.965,3.9785,3.9788,0,0,0,0,0,0,3.9877,3.9866,3.985,3.9847,3.9829,3.9789,3.9781,3.9782,3.9734,3.9724,3.9731,3.9724,3.9682,3.9679,3.9677,3.9749,3.965,3.965,3.9651,3.9781,3.9785,3.9789,0,0,0,0,0,0,3.9878,3.9876,3.9853,3.9854,3.9849,3.9792,3.9794,3.9782,3.9779,3.9726,3.9715,3.9739,3.9679,3.9676,3.9704,3.9746,3.9651,3.9651,3.9778,3.9783,3.9787,3.9895,0,0,0,0,0,0,3.9879,3.9877,3.9901,3.9856,3.985,3.988,3.9797,3.9784,3.978,3.977,3.973,3.9721,3.9676,3.9704,3.9705,3.9745,3.9652,3.9774,3.978,3.9786,3.9887,3.9903,3.9916,0,0,0,0,0,3.988,3.9934,3.9903,3.9901,3.9878,3.9883,3.988,3.9826,3.9784,3.9807,3.9774,3.9722,3.9742,3.9707,3.9708,3.9749,3.9771,3.9778,3.9785,3.9881,3.99,3.9916,0,0,0,0,0,0,3.9987,3.9927,3.9891,3.9933,3.9914,3.9865,3.9893,3.9848,3.9841,3.9832,3.9767,3.9759,3.9796,3.9775,3.9738,3.9809,3.9748,3.9756,3.9821,3.9838,3.9852,3.9856,3.9652,0,0,0,0,0,4.0015,4.0023,3.9971,4.0013,4.0005,3.9951,3.9951,3.9912,3.989,3.9881,3.9849,3.983,3.9832,3.9834,3.9833,3.9884,3.9874,3.9913,3.9927,3.9939,3.9946,3.9971,3.9988,3.9812,3.9812,3.9812,0,0,4.0074,4.0043,4.0052,4.0034,4.0014,4.0024,3.9945,3.996,3.9967,3.9884,3.9907,3.9884,3.9858,3.9898,3.9914,3.9882,3.9993,3.9948,3.9958,3.9959,3.998,3.9997,4.0012,3.9817,3.9816,3.9816,0,0,4.0186,4.0164,4.0195,4.0177,4.0148,4.0112,4.012,4.0078,4.0059,4.0081,4.0019,4.0027,4.0031,4.0015,4.0008,4.0114,4.0067,4.0116,4.019,4.0216,4.0229,4.0241,4.0278,4.0293,4.0123,4.0124,4.0124,0,4.0263,4.0275,4.0218,4.0236,4.0229,4.0154,4.0186,4.0172,4.0144,4.0142,4.0107,4.011,4.0087,4.0122,4.0148,4.0145,4.0151,4.0119,4.0232,4.0243,4.0254,4.0288,4.0302,4.013,4.0129,4.0128,4.0128,0,4.0371,4.0381,4.041,4.0384,4.0382,4.0407,4.0353,4.0358,4.0319,4.0287,4.0311,4.0281,4.0272,4.0278,4.0241,4.0307,4.0288,4.0244,4.0181,4.0277,4.0309,4.0322,4.0138,4.0136,4.0134,4.0133,0,0,4.0548,4.049,4.0502,4.0489,4.0452,4.0458,4.048,4.0471,4.0475,4.046,4.0476,4.0481,4.0439,4.0431,4.0391,4.0414,4.0499,4.0366,4.0364,4.0391,4.0569,4.0603,4.0619,4.0468,4.047,4.0472,4.0571,0,4.0651,4.0684,4.0633,4.0678,4.0686,4.0615,4.0634,4.0614,4.0585,4.0587,4.0555,4.0559,4.0505,4.0499,4.0518,4.0485,4.0534,4.0477,4.0482,4.0483,4.0489,4.0635,4.067,4.0766,4.0583,4.0585,4.0587,0,4.0775,4.0765,4.081,4.077,4.0771,4.0789,4.0776,4.078,4.0756,4.0733,4.0723,4.0676,4.0695,4.0635,4.066,4.0623,4.0622,4.0606,4.0608,4.0606,4.054,4.0636,4.0795,4.0809,4.0606,4.0604,4.0603,0,4.0899,4.0896,4.0922,4.0914,4.0868,4.0882,4.0864,4.0836,4.0833,4.0822,4.082,4.0812,4.0807,4.0802,4.0754,4.0715,4.0785,4.0721,4.0766,4.0767,4.0783,4.0782,4.0943,4.0785,4.0784,4.0784,4.0784,0,4.1019,4.1049,4.0977,4.0993,4.1026,4.0967,4.1001,4.0975,4.0951,4.0961,4.09,4.0912,4.0848,4.0852,4.0815,4.0841,4.084,4.0822,4.0811,4.0827,4.0829,4.0824,4.0816,4.0788,4.0787,4.0786,4.0786,0,4.1161,4.1114,4.1138,4.1093,4.1082,4.1108,4.1068,4.1082,4.1049,4.1063,4.1063,4.1011,4.1013,4.0965,4.0958,4.0932,4.0975,4.0953,4.0983,4.0975,4.1023,4.1019,4.1185,4.1204,4.1035,4.1037,4.1038,0,4.124,4.1262,4.1218,4.122,4.1205,4.1209,4.1206,4.115,4.1149,4.1123,4.1139,4.1136,4.113,4.1137,4.1099,4.1093,4.107,4.1129,4.1069,4.1083,4.107,4.1069,4.107,4.1141,4.1144,4.1145,4.1147,0,4.1385,4.136,4.1358,4.1348,4.1345,4.1335,4.132,4.1325,4.1264,4.1266,4.1267,4.1263,4.1255,4.1252,4.1239,4.122,4.1174,4.1166,4.1176,4.1191,4.1207,4.1198,4.1016,4.1162,4.1161,4.116,4.1159,4.1158,4.1497,4.1513,4.1484,4.1484,4.1467,4.1454,4.1464,4.1432,4.1432,4.1421,4.1388,4.1394,4.1369,4.1346,4.1332,4.1336,4.1307,4.1322,4.1325,4.1329,4.1338,4.1208,4.1334,4.1333,4.1333,4.1332,4.1332,0,4.1637,4.1616,4.1616,4.1597,4.1596,4.1552,4.1534,4.1536,4.1543,4.1523,4.1518,4.152,4.1517,4.1479,4.1472,4.1483,4.1461,4.1482,4.1481,4.1477,4.1365,4.1356,4.15,4.15,4.15,4.15,4.15,4.15,4.171,4.1734,4.1707,4.1722,4.17,4.1706,4.1699,4.1687,4.1671,4.1675,4.1672,4.1647,4.162,4.161,4.1606,4.1595,4.1595,4.1624,4.1606,4.1501,4.1485,4.1469,4.1461,4.1624,4.1625,4.1717,4.1718,4.1718]}]]